| time (UTC) | temp F | wind direction | speed MPH | gust MPH | rain 1hr in | rain 24hr in | rain mn in | humidity % | barometer mb |
| 20260906103151 | 71 | 162 | 0.0 | 1.0 | 0.00 | 0.00 | 0.00 | 99 | 985.4 |
| 20260906102650 | 71 | 164 | 0.0 | 0.0 | 0.00 | 0.00 | 0.00 | 99 | 985.4 |
| 20260906102219 | 71 | 164 | 0.0 | 0.0 | 0.00 | 0.00 | 0.00 | 99 | 985.4 |
| 20260906101803 | 71 | 164 | 0.0 | 0.0 | 0.00 | 0.00 | 0.00 | 99 | 985.4 |
| 20260906101334 | 70 | 165 | 0.0 | 2.0 | 0.00 | 0.00 | 0.00 | 99 | 985.1 |
| 20260906100902 | 71 | 160 | 1.0 | 1.0 | 0.00 | 0.00 | 0.00 | 99 | 985.4 |
| 20260906100432 | 71 | 156 | 1.0 | 1.0 | 0.00 | 0.00 | 0.00 | 99 | 985.1 |
| 20260906100016 | 71 | 173 | 0.0 | 0.0 | 0.00 | 0.00 | 0.00 | 99 | 985.1 |
| 20260906095529 | 71 | 174 | 0.0 | 0.0 | 0.00 | 0.00 | 0.00 | 99 | 985.1 |
| 20260906095112 | 71 | 174 | 0.0 | 0.0 | 0.00 | 0.00 | 0.00 | 99 | 985.1 |
| 20260906093738 | 70 | 174 | 0.0 | 0.0 | 0.00 | 0.00 | 0.00 | 99 | 985.1 |
| 20260906093322 | 70 | 174 | 0.0 | 0.0 | 0.00 | 0.00 | 0.00 | 99 | 985.1 |
| 20260906092905 | 70 | 174 | 0.0 | 0.0 | 0.00 | 0.00 | 0.00 | 99 | 985.1 |
| 20260906092450 | 70 | 174 | 0.0 | 1.0 | 0.00 | 0.00 | 0.00 | 99 | 985.1 |
| 20260906092019 | 71 | 166 | 0.0 | 0.0 | 0.00 | 0.00 | 0.00 | 99 | 985.4 |
| 20260906091549 | 71 | 166 | 0.0 | 0.0 | 0.00 | 0.00 | 0.00 | 99 | 985.1 |
| 20260906091133 | 71 | 165 | 0.0 | 0.0 | 0.00 | 0.00 | 0.00 | 99 | 985.1 |
| 20260906090659 | 71 | 165 | 0.0 | 0.0 | 0.00 | 0.00 | 0.00 | 99 | 985.1 |
| 20260906090211 | 71 | 166 | 0.0 | 0.0 | 0.00 | 0.00 | 0.00 | 99 | 985.1 |
| 20260906085739 | 71 | 166 | 0.0 | 1.0 | 0.00 | 0.00 | 0.00 | 99 | 985.1 |
| 20260906085322 | 71 | 165 | 0.0 | 0.0 | 0.00 | 0.00 | 0.00 | 99 | 984.7 |
| 20260906084002 | 71 | 165 | 0.0 | 1.0 | 0.00 | 0.00 | 0.00 | 99 | 985.1 |
| 20260906083531 | 71 | 165 | 1.0 | 1.0 | 0.00 | 0.00 | 0.00 | 99 | 984.7 |
| 20260906083114 | 71 | 164 | 0.0 | 1.0 | 0.00 | 0.00 | 0.00 | 99 | 985.1 |
| 20260906082642 | 71 | 163 | 0.0 | 0.0 | 0.00 | 0.00 | 0.00 | 99 | 985.1 |
| 20260906082211 | 71 | 163 | 0.0 | 0.0 | 0.00 | 0.00 | 0.00 | 99 | 985.1 |
| 20260906081252 | 71 | 163 | 0.0 | 1.0 | 0.00 | 0.00 | 0.00 | 99 | 985.1 |
| 20260906080821 | 71 | 162 | 0.0 | 1.0 | 0.00 | 0.00 | 0.00 | 99 | 985.1 |
| 20260906080352 | 70 | 166 | 0.0 | 1.0 | 0.00 | 0.00 | 0.00 | 99 | 985.1 |
| 20260906075935 | 71 | 164 | 1.0 | 1.0 | 0.00 | 0.00 | 0.00 | 99 | 985.1 |
| 20260906075518 | 71 | 163 | 0.0 | 0.0 | 0.00 | 0.00 | 0.00 | 99 | 985.1 |
| 20260906075046 | 71 | 169 | 0.0 | 0.0 | 0.00 | 0.00 | 0.00 | 99 | 985.1 |
| 20260906074631 | 70 | 169 | 1.0 | 1.0 | 0.00 | 0.00 | 0.00 | 99 | 985.1 |
| 20260906074214 | 70 | 169 | 0.0 | 1.0 | 0.00 | 0.00 | 0.00 | 99 | 985.1 |
| 20260906073325 | 71 | 163 | 0.0 | 0.0 | 0.00 | 0.00 | 0.00 | 99 | 985.1 |
| 20260906072908 | 71 | 162 | 0.0 | 0.0 | 0.00 | 0.00 | 0.00 | 99 | 985.1 |
| 20260906072437 | 71 | 163 | 0.0 | 1.0 | 0.00 | 0.00 | 0.00 | 99 | 985.1 |
| 20260906071549 | 70 | 165 | 0.0 | 0.0 | 0.00 | 0.00 | 0.00 | 99 | 985.1 |
| 20260906071133 | 70 | 166 | 0.0 | 1.0 | 0.00 | 0.00 | 0.00 | 99 | 985.1 |
| 20260906065727 | 70 | 166 | 0.0 | 1.0 | 0.00 | 0.00 | 0.00 | 99 | 984.7 |
| 20260906065310 | 70 | 167 | 0.0 | 1.0 | 0.00 | 0.00 | 0.00 | 99 | 984.7 |
| 20260906064838 | 71 | 171 | 0.0 | 0.0 | 0.00 | 0.00 | 0.00 | 99 | 984.7 |
| 20260906063934 | 70 | 171 | 0.0 | 0.0 | 0.00 | 0.00 | 0.00 | 99 | 985.1 |
| 20260906063518 | 71 | 165 | 0.0 | 0.0 | 0.00 | 0.00 | 0.00 | 99 | 985.1 |
| 20260906063100 | 70 | 171 | 0.0 | 0.0 | 0.00 | 0.00 | 0.00 | 99 | 985.1 |
| 20260906062645 | 70 | 172 | 0.0 | 1.0 | 0.00 | 0.00 | 0.00 | 99 | 985.4 |
| 20260906061323 | 70 | 166 | 0.0 | 0.0 | 0.00 | 0.00 | 0.00 | 99 | 985.1 |
| 20260906060906 | 70 | 171 | 0.0 | 1.0 | 0.00 | 0.00 | 0.00 | 99 | 985.4 |
| 20260906060451 | 71 | 171 | 1.0 | 2.0 | 0.00 | 0.00 | 0.00 | 99 | 985.4 |
| 20260906060035 | 71 | 164 | 1.0 | 1.0 | 0.00 | 0.00 | 0.00 | 99 | 985.4 |
| 20260906055618 | 70 | 167 | 0.0 | 0.0 | 0.00 | 0.00 | 0.00 | 99 | 985.4 |
| 20260906055203 | 70 | 167 | 1.0 | 2.0 | 0.00 | 0.00 | 0.00 | 99 | 985.4 |
| 20260906054748 | 70 | 168 | 1.0 | 2.0 | 0.00 | 0.00 | 0.00 | 99 | 985.7 |
| 20260906054302 | 70 | 172 | 0.0 | 0.0 | 0.00 | 0.00 | 0.00 | 99 | 985.1 |
| 20260906053846 | 70 | 173 | 0.0 | 1.0 | 0.00 | 0.00 | 0.00 | 99 | 985.1 |
| 20260906053416 | 71 | 170 | 0.0 | 1.0 | 0.00 | 0.00 | 0.00 | 99 | 985.1 |
| 20260906052945 | 71 | 164 | 0.0 | 1.0 | 0.00 | 0.00 | 0.00 | 99 | 985.1 |
| 20260906052043 | 70 | 163 | 0.0 | 0.0 | 0.00 | 0.00 | 0.00 | 99 | 985.1 |
| 20260906050712 | 70 | 162 | 0.0 | 1.0 | 0.00 | 0.00 | 0.00 | 99 | 985.4 |
| 20260906045824 | 70 | 167 | 0.0 | 1.0 | 0.00 | 0.00 | 0.00 | 99 | 985.7 |
| 20260906045407 | 70 | 166 | 0.0 | 0.0 | 0.00 | 0.00 | 0.00 | 99 | 985.4 |
| 20260906044951 | 70 | 167 | 0.0 | 1.0 | 0.00 | 0.00 | 0.00 | 99 | 985.4 |
| 20260906044520 | 70 | 172 | 0.0 | 1.0 | 0.00 | 0.00 | 0.00 | 99 | 985.7 |
| 20260906044104 | 70 | 171 | 0.0 | 0.0 | 0.00 | 0.00 | 0.00 | 99 | 985.1 |
| 20260906042718 | 71 | 167 | 0.0 | 1.0 | 0.00 | 0.00 | 0.00 | 99 | 985.4 |
| 20260906042302 | 71 | 165 | 0.0 | 1.0 | 0.00 | 0.00 | 0.00 | 99 | 985.4 |
| 20260906041846 | 71 | 164 | 0.0 | 2.0 | 0.00 | 0.00 | 0.00 | 99 | 985.1 |
| 20260906040928 | 71 | 165 | 0.0 | 0.0 | 0.00 | 0.00 | 0.00 | 99 | 985.1 |
| 20260906040512 | 71 | 164 | 0.0 | 0.0 | 0.00 | 0.00 | 0.00 | 99 | 985.4 |
| 20260906040056 | 71 | 165 | 0.0 | 1.0 | 0.00 | 0.00 | 0.00 | 99 | 985.1 |
| 20260906035624 | 71 | 174 | 0.0 | 1.0 | 0.00 | 0.00 | 0.25 | 99 | 985.1 |
| 20260906035207 | 71 | 165 | 0.0 | 0.0 | 0.00 | 0.00 | 0.25 | 99 | 985.1 |
| 20260906034752 | 71 | 170 | 0.0 | 0.0 | 0.00 | 0.00 | 0.25 | 99 | 985.1 |
| 20260906033820 | 71 | 170 | 0.0 | 1.0 | 0.00 | 0.00 | 0.25 | 99 | 985.4 |
| 20260906033400 | 72 | 171 | 0.0 | 0.0 | 0.00 | 0.00 | 0.25 | 99 | 985.7 |
| 20260906032944 | 72 | 170 | 0.0 | 0.0 | 0.00 | 0.00 | 0.25 | 99 | 985.7 |
| 20260906032513 | 72 | 170 | 0.0 | 1.0 | 0.00 | 0.00 | 0.25 | 99 | 985.7 |
| 20260906032043 | 72 | 170 | 0.0 | 0.0 | 0.00 | 0.00 | 0.25 | 99 | 985.7 |
| 20260906031555 | 72 | 170 | 0.0 | 0.0 | 0.00 | 0.00 | 0.25 | 99 | 985.7 |
| 20260906031140 | 71 | 170 | 0.0 | 0.0 | 0.00 | 0.00 | 0.25 | 99 | 985.7 |
| 20260906030651 | 72 | 170 | 0.0 | 0.0 | 0.00 | 0.00 | 0.25 | 99 | 985.7 |
| 20260906030236 | 72 | 170 | 0.0 | 0.0 | 0.00 | 0.00 | 0.25 | 99 | 985.7 |
| 20260906025346 | 72 | 171 | 0.0 | 0.0 | 0.00 | 0.00 | 0.25 | 99 | 985.7 |
| 20260906024914 | 72 | 170 | 0.0 | 0.0 | 0.00 | 0.00 | 0.25 | 99 | 985.7 |
| 20260906024427 | 72 | 170 | 0.0 | 0.0 | 0.00 | 0.00 | 0.25 | 99 | 985.7 |
| 20260906023954 | 72 | 171 | 0.0 | 0.0 | 0.00 | 0.00 | 0.25 | 99 | 985.7 |
| 20260906023538 | 72 | 171 | 0.0 | 0.0 | 0.00 | 0.00 | 0.25 | 99 | 985.7 |
| 20260906023107 | 72 | 171 | 0.0 | 0.0 | 0.00 | 0.00 | 0.25 | 99 | 985.7 |
| 20260906022636 | 72 | 171 | 0.0 | 0.0 | 0.00 | 0.00 | 0.25 | 99 | 985.7 |
| 20260906022204 | 72 | 171 | 0.0 | 0.0 | 0.00 | 0.00 | 0.25 | 99 | 986.1 |
| 20260906021733 | 72 | 171 | 0.0 | 0.0 | 0.00 | 0.00 | 0.25 | 99 | 985.7 |
| 20260906021316 | 72 | 171 | 1.0 | 1.0 | 0.00 | 0.00 | 0.25 | 99 | 985.7 |
| 20260906020357 | 73 | 171 | 0.0 | 0.0 | 0.00 | 0.00 | 0.25 | 99 | 985.7 |
| 20260906015941 | 73 | 171 | 0.0 | 0.0 | 0.00 | 0.00 | 0.25 | 99 | 985.7 |
| 20260906015509 | 73 | 171 | 1.0 | 1.0 | 0.00 | 0.00 | 0.25 | 99 | 985.4 |
| 20260906014621 | 73 | 171 | 0.0 | 0.0 | 0.00 | 0.00 | 0.25 | 99 | 985.4 |
| 20260906014149 | 73 | 171 | 0.0 | 0.0 | 0.00 | 0.00 | 0.25 | 99 | 985.4 |
| 20260906013733 | 73 | 171 | 0.0 | 0.0 | 0.00 | 0.00 | 0.25 | 99 | 985.1 |
| 20260906013259 | 74 | 171 | 0.0 | 0.0 | 0.00 | 0.00 | 0.25 | 99 | 985.1 |
| 20260906012842 | 74 | 171 | 0.0 | 0.0 | 0.00 | 0.00 | 0.25 | 99 | 985.1 |
| 20260906012411 | 74 | 171 | 0.0 | 0.0 | 0.00 | 0.00 | 0.25 | 99 | 985.1 |
| 20260906011939 | 74 | 171 | 0.0 | 0.0 | 0.00 | 0.00 | 0.25 | 99 | 985.1 |
| 20260906011036 | 74 | 171 | 0.0 | 0.0 | 0.00 | 0.00 | 0.25 | 99 | 985.1 |
| 20260906010133 | 74 | 171 | 0.0 | 0.0 | 0.00 | 0.00 | 0.25 | 99 | 985.1 |
| 20260906005716 | 74 | 171 | 0.0 | 0.0 | 0.00 | 0.00 | 0.25 | 99 | 984.7 |
| 20260906005244 | 74 | 171 | 0.0 | 0.0 | 0.00 | 0.00 | 0.25 | 99 | 984.7 |
| 20260906004813 | 74 | 171 | 0.0 | 0.0 | 0.00 | 0.00 | 0.25 | 99 | 984.7 |
| 20260906004340 | 75 | 171 | 0.0 | 0.0 | 0.00 | 0.00 | 0.25 | 99 | 984.7 |
| 20260906003923 | 74 | 171 | 0.0 | 0.0 | 0.00 | 0.00 | 0.25 | 99 | 984.7 |
| 20260906003506 | 74 | 171 | 0.0 | 0.0 | 0.00 | 0.00 | 0.25 | 99 | 985.1 |
| 20260906002602 | 75 | 171 | 0.0 | 0.0 | 0.00 | 0.00 | 0.25 | 99 | 984.7 |
| 20260906002147 | 75 | 171 | 0.0 | 0.0 | 0.00 | 0.00 | 0.25 | 99 | 984.7 |
| 20260906001729 | 75 | 171 | 0.0 | 0.0 | 0.00 | 0.00 | 0.25 | 99 | 985.1 |
| 20260906001257 | 75 | 171 | 0.0 | 0.0 | 0.00 | 0.00 | 0.25 | 99 | 984.7 |
| 20260906000841 | 75 | 171 | 0.0 | 0.0 | 0.00 | 0.00 | 0.25 | 98 | 985.1 |
| 20260906000411 | 75 | 171 | 0.0 | 0.0 | 0.00 | 0.00 | 0.25 | 98 | 984.7 |
| 20260905235952 | 76 | 171 | 0.0 | 0.0 | 0.00 | 0.00 | 0.25 | 97 | 985.1 |
| 20260905235536 | 76 | 171 | 0.0 | 0.0 | 0.00 | 0.00 | 0.25 | 98 | 984.7 |
| 20260905235047 | 76 | 171 | 0.0 | 0.0 | 0.00 | 0.00 | 0.25 | 97 | 984.7 |
| 20260905234631 | 76 | 171 | 1.0 | 1.0 | 0.00 | 0.00 | 0.25 | 97 | 984.7 |
| 20260905234216 | 76 | 172 | 0.0 | 0.0 | 0.00 | 0.00 | 0.25 | 96 | 985.1 |
| 20260905233801 | 77 | 172 | 0.0 | 0.0 | 0.00 | 0.00 | 0.25 | 96 | 985.1 |
| 20260905233345 | 77 | 172 | 0.0 | 0.0 | 0.00 | 0.00 | 0.25 | 96 | 985.1 |
| 20260905231547 | 77 | 171 | 0.0 | 1.0 | 0.00 | 0.00 | 0.25 | 95 | 985.1 |
| 20260905231119 | 77 | 171 | 0.0 | 0.0 | 0.00 | 0.00 | 0.25 | 95 | 985.1 |
| 20260905230219 | 78 | 171 | 0.0 | 1.0 | 0.00 | 0.00 | 0.25 | 93 | 985.1 |
| 20260905225747 | 78 | 171 | 0.0 | 0.0 | 0.00 | 0.00 | 0.25 | 93 | 984.7 |
| 20260905225317 | 78 | 171 | 0.0 | 1.0 | 0.00 | 0.00 | 0.25 | 93 | 984.7 |
| 20260905224846 | 78 | 172 | 0.0 | 1.0 | 0.00 | 0.00 | 0.25 | 92 | 985.1 |
| 20260905224429 | 79 | 172 | 0.0 | 0.0 | 0.00 | 0.00 | 0.25 | 92 | 984.7 |
| 20260905224010 | 79 | 172 | 0.0 | 1.0 | 0.00 | 0.00 | 0.25 | 91 | 984.7 |
| 20260905223539 | 80 | 170 | 0.0 | 1.0 | 0.00 | 0.00 | 0.25 | 91 | 985.1 |
| 20260905223125 | 80 | 170 | 0.0 | 0.0 | 0.00 | 0.00 | 0.25 | 91 | 985.1 |
| 20260905222710 | 80 | 171 | 0.0 | 1.0 | 0.00 | 0.00 | 0.25 | 88 | 985.1 |
| 20260905222255 | 80 | 172 | 1.0 | 1.0 | 0.00 | 0.00 | 0.25 | 87 | 984.7 |
| 20260905221839 | 81 | 171 | 1.0 | 1.0 | 0.00 | 0.00 | 0.25 | 85 | 984.7 |
| 20260905220938 | 82 | 189 | 1.0 | 2.0 | 0.00 | 0.00 | 0.25 | 84 | 984.7 |
| 20260905220520 | 82 | 187 | 0.0 | 1.0 | 0.00 | 0.00 | 0.25 | 82 | 984.4 |
| 20260905220046 | 81 | 179 | 1.0 | 2.0 | 0.00 | 0.00 | 0.25 | 84 | 984.7 |
| 20260905215630 | 82 | 180 | 0.0 | 2.0 | 0.00 | 0.00 | 0.25 | 83 | 984.7 |
| 20260905215159 | 81 | 185 | 0.0 | 1.0 | 0.00 | 0.00 | 0.25 | 84 | 984.7 |
| 20260905214312 | 80 | 192 | 0.0 | 0.0 | 0.00 | 0.00 | 0.25 | 84 | 984.4 |
| 20260905212943 | 82 | 195 | 1.0 | 2.0 | 0.00 | 0.00 | 0.25 | 79 | 984.4 |
| 20260905212044 | 84 | 195 | 0.0 | 1.0 | 0.00 | 0.00 | 0.25 | 78 | 984.4 |
| 20260905211614 | 86 | 196 | 1.0 | 2.0 | 0.00 | 0.00 | 0.25 | 74 | 984.0 |
| 20260905211158 | 85 | 196 | 0.0 | 1.0 | 0.00 | 0.00 | 0.25 | 76 | 984.4 |
| 20260905210743 | 84 | 196 | 2.0 | 2.0 | 0.00 | 0.00 | 0.25 | 78 | 984.0 |
| 20260905204925 | 86 | 186 | 1.0 | 3.0 | 0.00 | 0.00 | 0.25 | 73 | 984.0 |
| 20260905204510 | 86 | 183 | 2.0 | 3.0 | 0.00 | 0.00 | 0.25 | 70 | 984.0 |
| 20260905204053 | 86 | 194 | 2.0 | 3.0 | 0.00 | 0.00 | 0.25 | 72 | 984.0 |
| 20260905203637 | 86 | 190 | 3.0 | 3.0 | 0.00 | 0.00 | 0.25 | 71 | 984.0 |
| 20260905203223 | 86 | 193 | 1.0 | 2.0 | 0.00 | 0.00 | 0.25 | 72 | 984.0 |
| 20260905202807 | 86 | 186 | 2.0 | 3.0 | 0.00 | 0.00 | 0.25 | 69 | 984.0 |
| 20260905202353 | 87 | 193 | 1.0 | 2.0 | 0.00 | 0.00 | 0.25 | 69 | 984.0 |
| 20260905201939 | 87 | 196 | 1.0 | 2.0 | 0.00 | 0.00 | 0.25 | 69 | 984.0 |
| 20260905201524 | 88 | 185 | 1.0 | 2.0 | 0.00 | 0.00 | 0.25 | 69 | 984.0 |
| 20260905201053 | 88 | 181 | 2.0 | 3.0 | 0.00 | 0.00 | 0.25 | 67 | 984.0 |
| 20260905200154 | 87 | 199 | 3.0 | 4.0 | 0.00 | 0.00 | 0.25 | 70 | 984.0 |
| 20260905195724 | 87 | 192 | 0.0 | 2.0 | 0.00 | 0.00 | 0.25 | 69 | 984.0 |
| 20260905195307 | 87 | 198 | 2.0 | 2.0 | 0.00 | 0.00 | 0.25 | 69 | 984.4 |
| 20260905194404 | 87 | 193 | 1.0 | 3.0 | 0.00 | 0.00 | 0.25 | 69 | 984.4 |
| 20260905193500 | 87 | 196 | 2.0 | 4.0 | 0.00 | 0.00 | 0.25 | 70 | 984.4 |
| 20260905193043 | 86 | 198 | 1.0 | 4.0 | 0.00 | 0.00 | 0.25 | 67 | 984.4 |
| 20260905192613 | 86 | 198 | 2.0 | 3.0 | 0.00 | 0.00 | 0.25 | 70 | 984.4 |
| 20260905192142 | 86 | 203 | 2.0 | 4.0 | 0.00 | 0.00 | 0.25 | 71 | 984.7 |
| 20260905191726 | 86 | 193 | 1.0 | 2.0 | 0.00 | 0.00 | 0.25 | 74 | 984.7 |
| 20260905191255 | 86 | 199 | 2.0 | 6.0 | 0.00 | 0.00 | 0.25 | 70 | 985.1 |
| 20260905190840 | 87 | 197 | 0.0 | 6.0 | 0.00 | 0.00 | 0.25 | 67 | 985.1 |
| 20260905190408 | 87 | 200 | 2.0 | 7.0 | 0.00 | 0.00 | 0.25 | 69 | 985.1 |
| 20260905185937 | 86 | 194 | 1.0 | 2.0 | 0.00 | 0.00 | 0.25 | 71 | 985.1 |
| 20260905185522 | 86 | 195 | 2.0 | 2.0 | 0.00 | 0.00 | 0.25 | 69 | 985.1 |
| 20260905185051 | 85 | 187 | 1.0 | 4.0 | 0.00 | 0.00 | 0.25 | 69 | 985.1 |
| 20260905184637 | 86 | 192 | 1.0 | 3.0 | 0.00 | 0.00 | 0.25 | 70 | 985.4 |
| 20260905184222 | 86 | 192 | 1.0 | 2.0 | 0.00 | 0.00 | 0.25 | 70 | 985.4 |
| 20260905183735 | 86 | 200 | 2.0 | 3.0 | 0.00 | 0.00 | 0.25 | 68 | 985.7 |
| 20260905183319 | 86 | 185 | 2.0 | 2.0 | 0.00 | 0.00 | 0.25 | 70 | 985.4 |
| 20260905182900 | 86 | 193 | 1.0 | 3.0 | 0.00 | 0.00 | 0.25 | 73 | 985.7 |
| 20260905182014 | 85 | 188 | 0.0 | 2.0 | 0.00 | 0.00 | 0.25 | 76 | 985.7 |
| 20260905181554 | 85 | 186 | 1.0 | 2.0 | 0.00 | 0.00 | 0.25 | 75 | 985.7 |
| 20260905181123 | 85 | 169 | 1.0 | 2.0 | 0.00 | 0.00 | 0.25 | 74 | 985.7 |
| 20260905180706 | 86 | 200 | 4.0 | 4.0 | 0.00 | 0.00 | 0.25 | 73 | 985.7 |
| 20260905175804 | 85 | 165 | 0.0 | 3.0 | 0.00 | 0.00 | 0.25 | 77 | 985.7 |
| 20260905175349 | 85 | 187 | 1.0 | 3.0 | 0.00 | 0.00 | 0.25 | 78 | 985.7 |
| 20260905174934 | 84 | 191 | 2.0 | 3.0 | 0.00 | 0.00 | 0.25 | 79 | 985.7 |
| 20260905174050 | 82 | 181 | 0.0 | 3.0 | 0.00 | 0.00 | 0.25 | 83 | 985.7 |
| 20260905173634 | 82 | 190 | 0.0 | 1.0 | 0.00 | 0.00 | 0.25 | 83 | 985.7 |
| 20260905173204 | 81 | 191 | 0.0 | 2.0 | 0.00 | 0.00 | 0.25 | 83 | 985.7 |
| 20260905172747 | 81 | 190 | 2.0 | 3.0 | 0.00 | 0.00 | 0.25 | 84 | 985.7 |
| 20260905171900 | 81 | 170 | 1.0 | 1.0 | 0.00 | 0.00 | 0.25 | 83 | 985.7 |
| 20260905171444 | 81 | 188 | 0.0 | 4.0 | 0.00 | 0.00 | 0.25 | 84 | 986.1 |
| 20260905170542 | 81 | 193 | 2.0 | 3.0 | 0.00 | 0.00 | 0.25 | 86 | 986.1 |
| 20260905170127 | 80 | 187 | 2.0 | 3.0 | 0.00 | 0.00 | 0.25 | 87 | 986.4 |
| 20260905165711 | 80 | 189 | 2.0 | 2.0 | 0.00 | 0.00 | 0.25 | 88 | 986.4 |
| 20260905165253 | 79 | 189 | 1.0 | 2.0 | 0.00 | 0.00 | 0.25 | 90 | 986.4 |
| 20260905164836 | 78 | 190 | 1.0 | 4.0 | 0.00 | 0.00 | 0.25 | 92 | 986.7 |
| 20260905164422 | 77 | 186 | 2.0 | 6.0 | 0.00 | 0.00 | 0.25 | 93 | 986.4 |
| 20260905163949 | 77 | 183 | 2.0 | 3.0 | 0.00 | 0.00 | 0.25 | 96 | 986.4 |
| 20260905163518 | 76 | 168 | 1.0 | 3.0 | 0.00 | 0.00 | 0.25 | 98 | 986.4 |
| 20260905163048 | 76 | 176 | 1.0 | 2.0 | 0.00 | 0.00 | 0.25 | 98 | 986.4 |
| 20260905162632 | 76 | 138 | 0.0 | 0.0 | 0.00 | 0.00 | 0.25 | 97 | 986.4 |
| 20260905162200 | 76 | 135 | 0.0 | 1.0 | 0.00 | 0.00 | 0.25 | 97 | 986.4 |
| 20260905161743 | 77 | 132 | 0.0 | 0.0 | 0.00 | 0.00 | 0.25 | 98 | 986.4 |
| 20260905161327 | 77 | 131 | 0.0 | 1.0 | 0.00 | 0.00 | 0.25 | 97 | 986.7 |
| 20260905160856 | 77 | 152 | 0.0 | 0.0 | 0.00 | 0.00 | 0.25 | 97 | 986.4 |
| 20260905160442 | 77 | 140 | 0.0 | 0.0 | 0.00 | 0.00 | 0.25 | 97 | 986.7 |
| 20260905160011 | 76 | 139 | 0.0 | 3.0 | 0.00 | 0.00 | 0.25 | 96 | 986.7 |
| 20260905155541 | 77 | 125 | 1.0 | 2.0 | 0.00 | 0.00 | 0.25 | 95 | 986.7 |
| 20260905154209 | 76 | 163 | 1.0 | 2.0 | 0.00 | 0.00 | 0.25 | 98 | 986.7 |
| 20260905153736 | 76 | 129 | 1.0 | 1.0 | 0.00 | 0.00 | 0.25 | 97 | 986.7 |
| 20260905153318 | 75 | 132 | 0.0 | 1.0 | 0.00 | 0.00 | 0.25 | 98 | 986.1 |
| 20260905152901 | 75 | 135 | 0.0 | 0.0 | 0.00 | 0.00 | 0.25 | 98 | 986.1 |
| 20260905152444 | 75 | 121 | 1.0 | 2.0 | 0.00 | 0.00 | 0.25 | 98 | 986.1 |
| 20260905152027 | 75 | 134 | 1.0 | 2.0 | 0.00 | 0.00 | 0.25 | 98 | 986.4 |
| 20260905151555 | 75 | 135 | 0.0 | 2.0 | 0.00 | 0.00 | 0.25 | 98 | 986.4 |
| 20260905151140 | 75 | 126 | 1.0 | 2.0 | 0.00 | 0.00 | 0.25 | 99 | 986.4 |
| 20260905150722 | 75 | 127 | 1.0 | 1.0 | 0.00 | 0.00 | 0.25 | 99 | 986.4 |
| 20260905150305 | 74 | 120 | 2.0 | 3.0 | 0.00 | 0.00 | 0.25 | 99 | 986.7 |
| 20260905145849 | 74 | 116 | 2.0 | 2.0 | 0.00 | 0.00 | 0.25 | 99 | 986.7 |
| 20260905145432 | 74 | 158 | 1.0 | 3.0 | 0.00 | 0.00 | 0.25 | 99 | 986.7 |
| 20260905145017 | 74 | 169 | 1.0 | 2.0 | 0.00 | 0.00 | 0.25 | 99 | 987.1 |
| 20260905144559 | 74 | 168 | 1.0 | 1.0 | 0.00 | 0.00 | 0.25 | 99 | 987.1 |
| 20260905144144 | 75 | 171 | 1.0 | 1.0 | 0.00 | 0.00 | 0.25 | 99 | 987.4 |
| 20260905143726 | 74 | 170 | 0.0 | 1.0 | 0.00 | 0.00 | 0.25 | 99 | 987.4 |
| 20260905143256 | 73 | 171 | 0.0 | 1.0 | 0.00 | 0.00 | 0.25 | 99 | 987.4 |
| 20260905142823 | 74 | 168 | 0.0 | 1.0 | 0.00 | 0.00 | 0.25 | 99 | 987.4 |
| 20260905142407 | 72 | 167 | 0.0 | 1.0 | 0.00 | 0.00 | 0.25 | 99 | 987.8 |
| 20260905141948 | 73 | 168 | 0.0 | 0.0 | 0.00 | 0.00 | 0.25 | 99 | 987.8 |
| 20260905141533 | 73 | 167 | 0.0 | 1.0 | 0.00 | 0.00 | 0.25 | 99 | 988.1 |
| 20260905140631 | 72 | 167 | 0.0 | 1.0 | 0.00 | 0.00 | 0.25 | 99 | 988.4 |
| 20260905140215 | 72 | 176 | 0.0 | 0.0 | 0.00 | 0.00 | 0.25 | 99 | 988.4 |
| 20260905135756 | 72 | 182 | 1.0 | 2.0 | 0.00 | 0.00 | 0.25 | 99 | 988.4 |
| 20260905135338 | 72 | 178 | 1.0 | 2.0 | 0.00 | 0.00 | 0.25 | 99 | 988.4 |
| 20260905134451 | 73 | 177 | 1.0 | 1.0 | 0.00 | 0.00 | 0.25 | 99 | 988.1 |
| 20260905134033 | 72 | 175 | 0.0 | 0.0 | 0.00 | 0.00 | 0.25 | 99 | 988.4 |
| 20260905133600 | 72 | 175 | 0.0 | 0.0 | 0.00 | 0.00 | 0.25 | 99 | 988.1 |
| 20260905133129 | 72 | 174 | 0.0 | 1.0 | 0.00 | 0.00 | 0.25 | 99 | 988.1 |
| 20260905132711 | 72 | 172 | 0.0 | 1.0 | 0.00 | 0.00 | 0.25 | 99 | 988.1 |
| 20260905131339 | 72 | 169 | 0.0 | 2.0 | 0.00 | 0.00 | 0.25 | 99 | 988.4 |
| 20260905130922 | 72 | 190 | 2.0 | 4.0 | 0.00 | 0.00 | 0.25 | 99 | 987.8 |
| 20260905130504 | 72 | 175 | 4.0 | 7.0 | 0.00 | 0.00 | 0.24 | 99 | 988.1 |
| 20260905130032 | 72 | 189 | 2.0 | 4.0 | 0.00 | 0.00 | 0.05 | 99 | 988.1 |
| 20260905125613 | 72 | 175 | 2.0 | 3.0 | 0.00 | 0.00 | 0.00 | 99 | 988.1 |
| 20260905124254 | 72 | 170 | 1.0 | 3.0 | 0.00 | 0.00 | 0.00 | 99 | 987.8 |
| 20260905123408 | 72 | 176 | 2.0 | 3.0 | 0.00 | 0.00 | 0.00 | 99 | 986.7 |
| 20260905122951 | 72 | 150 | 2.0 | 2.0 | 0.00 | 0.00 | 0.00 | 99 | 986.7 |
| 20260905122045 | 72 | 165 | 1.0 | 3.0 | 0.00 | 0.00 | 0.00 | 99 | 986.7 |
| 20260905121631 | 72 | 166 | 1.0 | 2.0 | 0.00 | 0.00 | 0.00 | 99 | 986.4 |
| 20260905121200 | 72 | 165 | 1.0 | 1.0 | 0.00 | 0.00 | 0.00 | 99 | 986.4 |
| 20260905120258 | 72 | 162 | 2.0 | 3.0 | 0.00 | 0.00 | 0.00 | 99 | 986.1 |
| 20260905114922 | 72 | 161 | 1.0 | 2.0 | 0.00 | 0.00 | 0.00 | 99 | 986.4 |
| 20260905114452 | 72 | 162 | 1.0 | 3.0 | 0.00 | 0.00 | 0.00 | 99 | 986.4 |
| 20260905114038 | 72 | 168 | 0.0 | 1.0 | 0.00 | 0.00 | 0.00 | 99 | 986.4 |
| 20260905113622 | 72 | 168 | 0.0 | 1.0 | 0.00 | 0.00 | 0.00 | 99 | 986.4 |
| 20260905113136 | 72 | 168 | 1.0 | 1.0 | 0.00 | 0.00 | 0.00 | 99 | 986.1 |
| 20260905112706 | 72 | 168 | 2.0 | 2.0 | 0.00 | 0.00 | 0.00 | 99 | 986.1 |
| 20260905112251 | 72 | 169 | 1.0 | 2.0 | 0.00 | 0.00 | 0.00 | 99 | 986.1 |
| 20260905111821 | 72 | 171 | 0.0 | 1.0 | 0.00 | 0.00 | 0.00 | 99 | 986.1 |
| 20260905111406 | 72 | 167 | 0.0 | 1.0 | 0.00 | 0.00 | 0.00 | 99 | 986.1 |
| 20260905110949 | 72 | 171 | 0.0 | 1.0 | 0.00 | 0.00 | 0.00 | 99 | 986.1 |
| 20260905110519 | 72 | 170 | 1.0 | 2.0 | 0.00 | 0.00 | 0.00 | 99 | 986.4 |
| 20260905110105 | 72 | 169 | 0.0 | 3.0 | 0.00 | 0.00 | 0.00 | 99 | 986.1 |
| 20260905105634 | 72 | 162 | 2.0 | 2.0 | 0.00 | 0.00 | 0.00 | 99 | 986.1 |
| 20260905105147 | 72 | 172 | 0.0 | 1.0 | 0.00 | 0.00 | 0.00 | 99 | 986.1 |
| 20260905104731 | 72 | 174 | 1.0 | 1.0 | 0.00 | 0.00 | 0.00 | 99 | 986.1 |
| 20260905104315 | 72 | 170 | 0.0 | 1.0 | 0.00 | 0.00 | 0.00 | 99 | 986.1 |
| 20260905103859 | 72 | 168 | 0.0 | 1.0 | 0.00 | 0.00 | 0.00 | 99 | 986.1 |